TimeCST,TemperatureF,Dew PointF,Humidity,Sea Level PressureIn,VisibilityMPH,Wind Direction,Wind SpeedMPH,Gust SpeedMPH,PrecipitationIn,Events,Conditions,WindDirDegrees,DateUTC
12:13 AM,26.6,24.8,93,29.50,10.0,ESE,8.1,-,N/A,,Clear,120,2013-02-18 06:13:00
12:34 AM,26.6,23.0,86,29.51,10.0,SE,9.2,-,N/A,,Clear,140,2013-02-18 06:34:00
12:53 AM,26.6,23.0,86,29.50,10.0,SE,5.8,-,N/A,,Clear,130,2013-02-18 06:53:00
1:13 AM,24.8,21.2,86,29.49,10.0,ESE,4.6,-,N/A,,Clear,120,2013-02-18 07:13:00
1:34 AM,23.0,21.2,93,29.49,10.0,ESE,3.5,-,N/A,,Scattered Clouds,110,2013-02-18 07:34:00
1:53 AM,23.0,21.2,93,29.49,7.0,SE,5.8,-,N/A,,Mostly Cloudy,130,2013-02-18 07:53:00
2:13 AM,23.0,21.2,93,29.49,7.0,Calm,Calm,-,N/A,,Mostly Cloudy,0,2013-02-18 08:13:00
2:34 AM,23.0,21.2,93,29.49,7.0,Calm,Calm,-,N/A,,Mostly Cloudy,0,2013-02-18 08:34:00
2:53 AM,24.8,23.0,93,29.49,7.0,Calm,Calm,-,N/A,,Mostly Cloudy,0,2013-02-18 08:53:00
3:13 AM,26.6,24.8,93,29.49,10.0,SW,3.5,-,N/A,,Mostly Cloudy,230,2013-02-18 09:13:00
3:33 AM,26.6,24.8,93,29.48,10.0,SW,3.5,-,N/A,,Mostly Cloudy,220,2013-02-18 09:33:00
3:53 AM,24.8,23.0,93,29.48,7.0,SW,3.5,-,N/A,,Scattered Clouds,220,2013-02-18 09:53:00
4:13 AM,21.2,21.2,100,29.50,4.0,SW,8.1,-,N/A,,Scattered Clouds,220,2013-02-18 10:13:00
4:33 AM,24.8,23.0,93,29.50,5.0,WSW,10.4,-,N/A,,Mostly Cloudy,240,2013-02-18 10:33:00
4:53 AM,26.6,26.6,100,29.51,3.0,WSW,10.4,-,N/A,,Mostly Cloudy,240,2013-02-18 10:53:00
5:14 AM,26.6,26.6,100,29.51,4.0,WSW,9.2,-,N/A,,Overcast,250,2013-02-18 11:14:00
5:33 AM,26.6,26.6,100,29.50,4.0,WSW,8.1,-,N/A,,Mostly Cloudy,240,2013-02-18 11:33:00
5:53 AM,26.6,26.6,100,29.50,3.0,WSW,8.1,-,N/A,,Overcast,250,2013-02-18 11:53:00
6:14 AM,26.6,26.6,100,29.49,3.0,West,6.9,-,N/A,,Overcast,260,2013-02-18 12:14:00
6:33 AM,26.6,26.6,100,29.50,4.0,West,11.5,-,N/A,,Overcast,260,2013-02-18 12:33:00
6:53 AM,28.4,26.6,93,29.49,3.0,West,9.2,-,N/A,,Overcast,260,2013-02-18 12:53:00
7:14 AM,26.6,26.6,100,29.51,2.0,WNW,25.3,32.2,N/A,,Overcast,290,2013-02-18 13:14:00
7:33 AM,24.8,23.0,93,29.52,1.5,WNW,24.2,34.5,N/A,,Overcast,300,2013-02-18 13:33:00
8:14 AM,23.0,21.2,93,29.54,4.0,WNW,24.2,-,N/A,,Overcast,300,2013-02-18 14:14:00
8:33 AM,21.2,19.4,93,29.57,5.0,WNW,23.0,29.9,N/A,,Overcast,300,2013-02-18 14:33:00
8:53 AM,19.4,17.6,93,29.57,5.0,WNW,27.6,38.0,N/A,,Overcast,300,2013-02-18 14:53:00
9:14 AM,19.4,15.8,86,29.59,7.0,WNW,25.3,28.8,N/A,,Overcast,290,2013-02-18 15:14:00
9:33 AM,17.6,15.8,93,29.60,5.0,WNW,25.3,32.2,N/A,,Overcast,300,2013-02-18 15:33:00
9:53 AM,15.8,12.2,86,29.61,2.5,WNW,29.9,-,N/A,,Overcast,290,2013-02-18 15:53:00
10:13 AM,15.8,10.4,79,29.62,2.5,WNW,27.6,34.5,N/A,,Overcast,300,2013-02-18 16:13:00
10:33 AM,14.0,10.4,86,29.63,2.0,WNW,26.5,32.2,N/A,Snow,Light Snow,300,2013-02-18 16:33:00
10:53 AM,14.0,8.6,79,29.64,2.5,WNW,27.6,-,N/A,Snow,Light Snow,290,2013-02-18 16:53:00
11:13 AM,12.2,8.6,85,29.65,1.8,WNW,27.6,33.4,N/A,Snow,Light Snow,290,2013-02-18 17:13:00
11:33 AM,14.0,8.6,79,29.66,3.0,WNW,26.5,32.2,N/A,Snow,Light Snow,300,2013-02-18 17:33:00
11:53 AM,12.2,8.6,85,29.67,4.0,WNW,28.8,33.4,N/A,,Haze,300,2013-02-18 17:53:00
12:13 PM,12.2,6.8,79,29.68,4.0,WNW,25.3,35.7,N/A,,Haze,300,2013-02-18 18:13:00
12:33 PM,12.2,6.8,79,29.67,5.0,WNW,28.8,33.4,N/A,,Haze,300,2013-02-18 18:33:00
12:53 PM,12.2,6.8,79,29.68,2.0,WNW,32.2,36.8,N/A,,Haze,300,2013-02-18 18:53:00
1:13 PM,12.2,6.8,79,29.68,2.5,WNW,32.2,36.8,N/A,,Haze,300,2013-02-18 19:13:00
1:33 PM,12.2,6.8,79,29.68,1.2,WNW,29.9,40.3,N/A,Snow,Light Snow,300,2013-02-18 19:33:00
1:54 PM,10.4,5.0,79,29.68,1.8,WNW,31.1,41.4,N/A,,Haze,300,2013-02-18 19:54:00
2:13 PM,10.4,5.0,79,29.69,1.8,WNW,31.1,39.1,N/A,Snow,Light Snow,300,2013-02-18 20:13:00
2:33 PM,10.4,3.2,73,29.70,1.8,WNW,29.9,41.4,N/A,Snow,Light Snow,300,2013-02-18 20:33:00
2:53 PM,10.4,3.2,73,29.72,3.0,WNW,24.2,35.7,N/A,,Haze,300,2013-02-18 20:53:00
3:13 PM,8.6,1.4,73,29.73,3.0,WNW,28.8,38.0,N/A,,Haze,300,2013-02-18 21:13:00
3:33 PM,8.6,1.4,73,29.73,2.5,WNW,29.9,35.7,N/A,,Haze,300,2013-02-18 21:33:00
3:53 PM,6.8,1.4,79,29.74,1.8,WNW,27.6,39.1,N/A,,Haze,300,2013-02-18 21:53:00
4:13 PM,6.8,1.4,79,29.75,1.5,NW,25.3,40.3,N/A,,Haze,310,2013-02-18 22:13:00
4:33 PM,3.2,-0.4,85,29.76,3.0,WNW,27.6,35.7,N/A,,Haze,300,2013-02-18 22:33:00
4:53 PM,3.2,-2.2,78,29.77,4.0,WNW,24.2,32.2,N/A,,Haze,300,2013-02-18 22:53:00
5:13 PM,3.2,-0.4,85,29.78,3.0,WNW,25.3,34.5,N/A,,Haze,300,2013-02-18 23:13:00
5:34 PM,3.2,-2.2,78,29.79,2.0,NW,25.3,36.8,N/A,,Haze,310,2013-02-18 23:34:00
5:53 PM,1.4,-2.2,85,29.80,1.5,NW,27.6,36.8,N/A,,Haze,310,2013-02-18 23:53:00
6:13 PM,1.4,-2.2,85,29.82,3.0,NW,25.3,35.7,N/A,,Haze,310,2013-02-19 00:13:00
6:33 PM,1.4,-2.2,85,29.83,5.0,NW,21.9,32.2,N/A,,Haze,310,2013-02-19 00:33:00
7:13 PM,1.4,-4.0,78,29.84,4.0,NW,23.0,32.2,N/A,,Haze,310,2013-02-19 01:13:00
7:33 PM,1.4,-2.2,85,29.85,4.0,NW,20.7,32.2,N/A,,Scattered Clouds,310,2013-02-19 01:33:00
7:53 PM,1.4,-4.0,78,29.85,4.0,NW,21.9,29.9,N/A,,Haze,310,2013-02-19 01:53:00
8:13 PM,1.4,-4.0,78,29.85,3.0,NW,21.9,31.1,N/A,,Haze,310,2013-02-19 02:13:00
8:33 PM,-0.4,-4.0,85,29.85,2.5,WNW,26.5,31.1,N/A,Snow,Light Snow,300,2013-02-19 02:33:00
8:53 PM,-0.4,-4.0,85,29.86,2.5,NW,24.2,33.4,N/A,Snow,Light Snow,310,2013-02-19 02:53:00
9:13 PM,-0.4,-5.8,78,29.87,2.0,NW,23.0,31.1,N/A,,Haze,310,2013-02-19 03:13:00
9:53 PM,-2.2,-7.6,78,29.89,5.0,WNW,24.2,27.6,N/A,,Haze,300,2013-02-19 03:53:00
10:13 PM,-2.2,-7.6,78,29.89,4.0,WNW,23.0,26.5,N/A,,Clear,300,2013-02-19 04:13:00
10:33 PM,-2.2,-7.6,78,29.90,7.0,WNW,21.9,26.5,N/A,,Clear,300,2013-02-19 04:33:00
10:53 PM,-2.2,-7.6,78,29.90,5.0,NW,20.7,25.3,N/A,,Haze,310,2013-02-19 04:53:00
11:13 PM,-2.2,-7.6,78,29.91,5.0,NW,19.6,26.5,N/A,,Clear,310,2013-02-19 05:13:00
11:34 PM,-2.2,-7.6,78,29.92,5.0,NW,18.4,-,N/A,,Clear,310,2013-02-19 05:34:00
11:53 PM,-2.2,-7.6,78,29.92,4.0,NW,19.6,-,N/A,,Haze,310,2013-02-19 05:53:00